CW2433 Weather Reports


Display with metric or nautical units.
time (UTC)temp
F
wind
direction
speed
MPH
gust
MPH
rain 1hr
in
rain 24hr
in
rain mn
in
humidity
%
barometer
mb
20260831194009 90 267 0.0 3.0 0.00 0.00 0.00 60 1012.5
20260831193509 90 230 1.0 3.0 0.00 0.00 0.00 61 1012.5
20260831193009 90 247 1.0 3.0 0.00 0.00 0.00 61 1012.5
20260831191510 90 252 2.0 5.0 0.00 0.00 0.00 62 1012.4
20260831191009 89 252 1.0 3.0 0.00 0.00 0.00 63 1012.4
20260831190509 89 255 1.0 3.0 0.00 0.00 0.00 62 1012.5
20260831190010 89 210 1.0 3.0 0.00 0.00 0.00 62 1012.6
20260831185509 89 313 2.0 3.0 0.00 0.00 0.00 61 1012.6
20260831185009 89 250 1.0 3.0 0.00 0.00 0.00 63 1012.5
20260831184510 89 255 1.0 3.0 0.00 0.00 0.00 62 1012.5
20260831184010 89 259 1.0 3.0 0.00 0.00 0.00 62 1012.5
20260831183010 88 334 1.0 3.0 0.00 0.00 0.00 63 1012.5
20260831182509 88 21 1.0 3.0 0.00 0.00 0.00 64 1012.6
20260831182009 88 276 1.0 3.0 0.00 0.00 0.00 64 1012.6
20260831181510 88 304 1.0 3.0 0.00 0.00 0.00 67 1012.5
20260831181010 88 152 1.0 3.0 0.00 0.00 0.00 66 1012.5
20260831180509 88 153 1.0 3.0 0.00 0.00 0.00 68 1012.5
20260831180010 88 148 1.0 3.0 0.00 0.00 0.00 69 1012.6
20260831175510 87 138 0.0 3.0 0.00 0.00 0.00 69 1012.7
20260831174510 87 135 0.0 3.0 0.00 0.00 0.00 68 1012.7
20260831174010 86 69 1.0 3.0 0.00 0.00 0.00 67 1012.7
20260831173510 86 11 2.0 3.0 0.00 0.00 0.00 67 1012.7
20260831173010 86 317 1.0 6.0 0.00 0.00 0.00 67 1012.6
20260831172510 87 21 1.0 6.0 0.00 0.00 0.00 67 1012.6
20260831172010 87 12 4.0 6.0 0.00 0.00 0.00 66 1012.6
20260831171510 86 45 2.0 6.0 0.00 0.00 0.00 67 1012.6
20260831171010 86 267 2.0 5.0 0.00 0.00 0.00 69 1012.6
20260831170510 86 252 1.0 5.0 0.00 0.00 0.00 69 1012.5
20260831170010 86 261 1.0 5.0 0.00 0.00 0.00 69 1012.5
20260831165510 85 350 1.0 5.0 0.00 0.00 0.00 71 1012.6
20260831165010 84 249 1.0 3.0 0.00 0.00 0.00 71 1012.5
20260831164010 84 345 1.0 5.0 0.00 0.00 0.00 72 1012.4
20260831163510 83 267 1.0 5.0 0.00 0.00 0.00 72 1012.6
20260831163010 83 254 1.0 3.0 0.00 0.00 0.00 72 1012.5
20260831162510 83 238 1.0 3.0 0.00 0.00 0.00 72 1012.4
20260831162010 83 334 0.0 3.0 0.00 0.00 0.00 74 1012.3
20260831161509 82 19 0.0 3.0 0.00 0.00 0.00 73 1012.3
20260831161009 82 257 1.0 3.0 0.00 0.00 0.00 74 1012.2
20260831160509 82 0 1.0 3.0 0.00 0.00 0.00 75 1012.1
20260831160009 81 27 2.0 3.0 0.00 0.00 0.00 75 1011.9
20260831155509 81 351 1.0 3.0 0.00 0.00 0.00 75 1011.8
20260831155009 81 18 0.0 5.0 0.00 0.00 0.00 75 1011.8
20260831154009 80 301 0.0 3.0 0.00 0.00 0.00 76 1012.0
20260831153509 80 276 2.0 5.0 0.00 0.00 0.00 77 1012.1
20260831152009 80 254 3.0 6.0 0.00 0.00 0.00 78 1011.8
20260831151510 80 252 1.0 2.0 0.00 0.00 0.00 80 1011.8
20260831151009 80 132 1.0 5.0 0.00 0.00 0.00 80 1011.8
20260831150009 79 247 2.0 5.0 0.00 0.00 0.00 80 1011.9
20260831145509 79 248 1.0 2.0 0.00 0.00 0.00 80 1011.3
20260831144509 79 12 0.0 2.0 0.00 0.00 0.00 81 1011.3
20260831144009 79 13 1.0 2.0 0.00 0.00 0.00 81 1011.6
20260831143509 79 260 0.0 2.0 0.00 0.00 0.00 81 1011.5
20260831143012 78 261 1.0 2.0 0.00 0.00 0.00 81 1011.8
20260831142009 78 260 0.0 0.0 0.00 0.00 0.00 82 1011.7
20260831141510 78 260 0.0 0.0 0.00 0.00 0.00 82 1011.4
20260831141009 78 277 0.0 2.0 0.00 0.00 0.00 82 1011.6
20260831140509 78 279 1.0 3.0 0.00 0.00 0.00 82 1011.7
20260831140010 78 344 0.0 3.0 0.00 0.00 0.00 82 1010.9
20260831135509 78 332 1.0 9.0 0.00 0.00 0.00 83 1010.9
20260831135009 77 236 1.0 9.0 0.00 0.00 0.00 83 1011.2
20260831134510 77 355 2.0 7.0 0.00 0.00 0.00 85 1011.2
20260831134009 77 303 1.0 3.0 0.00 0.00 0.00 86 1011.7
20260831132510 77 350 1.0 3.0 0.00 0.00 0.00 87 1011.7
20260831132010 76 332 1.0 3.0 0.00 0.00 0.00 87 1011.7
20260831131010 76 113 0.0 1.0 0.00 0.00 0.00 88 1011.6
20260831130510 76 112 0.0 2.0 0.00 0.00 0.00 88 1011.8
20260831130010 76 113 0.0 2.0 0.00 0.00 0.00 88 1011.6
20260831125510 76 128 0.0 0.0 0.00 0.00 0.00 88 1011.5
20260831125010 75 138 0.0 2.0 0.00 0.00 0.00 88 1011.6
20260831124510 75 138 1.0 2.0 0.00 0.00 0.00 87 1011.3
20260831124010 75 138 0.0 1.0 0.00 0.00 0.00 87 1011.2
20260831123510 75 138 0.0 1.0 0.00 0.00 0.00 87 1011.4
20260831123010 75 138 0.0 1.0 0.00 0.00 0.00 87 1011.4
20260831122510 75 138 0.0 1.0 0.00 0.00 0.00 87 1011.1
20260831122010 75 138 0.0 1.0 0.00 0.00 0.00 86 1011.0
20260831121510 75 138 0.0 1.0 0.00 0.00 0.00 86 1010.8
20260831120010 75 138 1.0 2.0 0.00 0.00 0.00 85 1010.5
20260831115510 75 138 0.0 1.0 0.00 0.00 0.00 85 1010.3
20260831115010 75 138 0.0 1.0 0.00 0.00 0.00 85 1010.4
20260831114510 75 138 0.0 1.0 0.00 0.00 0.00 85 1010.2
20260831114010 75 138 0.0 0.0 0.00 0.00 0.00 85 1010.1
20260831113009 75 138 0.0 2.0 0.00 0.00 0.00 85 1010.0
20260831112509 75 138 0.0 2.0 0.00 0.00 0.00 85 1009.9
20260831112009 75 138 0.0 1.0 0.00 0.00 0.00 84 1009.8
20260831111509 75 138 0.0 1.0 0.00 0.00 0.00 84 1009.6
20260831111009 75 138 0.0 1.0 0.00 0.00 0.00 84 1009.6
20260831110009 75 138 0.0 2.0 0.00 0.00 0.00 84 1009.6
20260831105509 75 138 0.0 2.0 0.00 0.00 0.00 84 1009.6
20260831105009 75 138 0.0 3.0 0.00 0.00 0.00 84 1009.6
20260831104509 75 138 1.0 3.0 0.00 0.00 0.00 84 1009.5
20260831104009 75 146 0.0 3.0 0.00 0.00 0.00 84 1009.6
20260831103009 76 187 0.0 2.0 0.00 0.00 0.00 84 1009.6
20260831102509 76 187 0.0 1.0 0.00 0.00 0.00 83 1009.5
20260831102009 76 187 0.0 0.0 0.00 0.00 0.00 83 1009.5
20260831101510 76 187 0.0 0.0 0.00 0.00 0.00 83 1009.5
20260831101009 76 187 0.0 0.0 0.00 0.00 0.00 83 1009.5
20260831100509 76 187 0.0 0.0 0.00 0.00 0.00 82 1009.5
20260831095509 76 187 0.0 0.0 0.00 0.00 0.00 82 1009.3
20260831095009 76 187 0.0 0.0 0.00 0.00 0.00 82 1009.2
20260831094510 77 187 0.0 0.0 0.00 0.00 0.00 82 1009.2
20260831093509 77 187 0.0 0.0 0.00 0.00 0.00 82 1008.9
20260831093010 77 187 0.0 1.0 0.00 0.00 0.00 82 1008.9
20260831092509 77 187 0.0 2.0 0.00 0.00 0.00 81 1008.9
20260831091513 77 187 0.0 2.0 0.00 0.00 0.00 81 1008.9
20260831091009 77 187 0.0 3.0 0.00 0.00 0.00 81 1008.8
20260831090010 78 173 0.0 1.0 0.00 0.00 0.00 81 1008.8
20260831085509 78 173 0.0 2.0 0.00 0.00 0.00 81 1008.8
20260831085009 78 173 0.0 3.0 0.00 0.00 0.00 81 1008.7
20260831084510 78 173 1.0 3.0 0.00 0.00 0.00 81 1008.5
20260831083010 78 137 0.0 2.0 0.00 0.00 0.00 82 1008.4
20260831082510 78 128 0.0 2.0 0.00 0.00 0.00 82 1008.4
20260831082010 78 128 1.0 2.0 0.00 0.00 0.00 82 1008.3
20260831081510 78 146 0.0 3.0 0.00 0.00 0.00 82 1008.4
20260831081010 78 146 0.0 3.0 0.00 0.00 0.00 83 1008.3
20260831075510 78 143 0.0 3.0 0.00 0.00 0.00 83 1008.3
20260831074010 78 149 1.0 5.0 0.00 0.00 0.00 85 1008.4
20260831073510 77 158 1.0 3.0 0.00 0.00 0.00 85 1008.4
20260831073010 78 134 1.0 3.0 0.00 0.00 0.00 85 1008.4
20260831072510 78 182 1.0 3.0 0.00 0.00 0.00 85 1008.4
20260831072010 78 180 0.0 3.0 0.00 0.00 0.00 85 1008.4
20260831071010 78 209 0.0 2.0 0.00 0.00 0.00 86 1008.7
20260831070509 78 209 0.0 2.0 0.00 0.00 0.00 86 1008.7
20260831070009 78 209 1.0 2.0 0.00 0.00 0.00 86 1008.7
20260831065009 78 209 0.0 0.0 0.00 0.00 0.00 85 1008.8
20260831064509 79 209 0.0 0.0 0.00 0.00 0.00 85 1008.7
20260831064009 79 209 0.0 0.0 0.00 0.00 0.00 85 1008.7
20260831063509 79 209 0.0 0.0 0.00 0.00 0.00 85 1008.7
20260831063009 79 209 0.0 1.0 0.00 0.00 0.00 84 1008.7
20260831062509 79 209 0.0 1.0 0.00 0.00 0.00 85 1008.6
20260831062009 79 209 0.0 1.0 0.00 0.00 0.00 84 1008.6
20260831061009 79 209 0.0 1.0 0.00 0.00 0.00 84 1008.5
20260831060509 79 209 0.0 2.0 0.00 0.00 0.00 84 1008.4
20260831060010 80 209 1.0 2.0 0.00 0.00 0.00 84 1008.3
20260831055509 80 209 0.0 1.0 0.00 0.00 0.00 84 1008.2
20260831055009 80 209 0.0 1.0 0.00 0.00 0.00 84 1008.2
20260831054509 80 209 0.0 1.0 0.00 0.00 0.00 84 1008.2
20260831054009 80 209 0.0 2.0 0.00 0.00 0.00 84 1008.1
20260831053509 80 209 0.0 2.0 0.00 0.00 0.00 84 1008.1
20260831053009 80 209 0.0 0.0 0.00 0.00 0.00 84 1008.1
20260831052509 80 209 0.0 0.0 0.00 0.00 0.00 83 1007.8
20260831052009 80 209 0.0 0.0 0.00 0.00 0.00 83 1007.7
20260831051510 80 209 0.0 0.0 0.00 0.00 0.00 82 1007.7
20260831051009 80 209 0.0 0.0 0.00 0.00 0.00 82 1007.7
20260831050510 80 209 0.0 0.0 0.00 0.00 0.00 81 1007.7
20260831050010 80 209 0.0 0.0 0.00 0.00 0.00 81 1007.8
20260831045516 80 209 0.0 0.0 0.00 0.00 0.00 81 1007.8
20260831044510 81 209 0.0 0.0 0.00 0.00 0.00 81 1007.8
20260831044010 81 209 0.0 0.0 0.00 0.00 0.00 80 1007.8
20260831043510 81 209 0.0 0.0 0.00 0.00 0.00 80 1007.8
20260831043010 81 209 0.0 0.0 0.00 0.00 0.00 79 1007.8
20260831042510 81 209 0.0 0.0 0.00 0.00 0.00 79 1007.8
20260831042010 81 209 0.0 0.0 0.00 0.00 0.00 79 1007.9
20260831041009 81 208 0.0 0.0 0.00 0.00 0.00 79 1008.0
20260831040509 81 191 0.0 0.0 0.00 0.00 0.00 79 1008.1
20260831040009 81 191 0.0 0.0 0.00 0.00 0.00 79 1008.3
20260831035509 82 190 0.0 0.0 0.00 0.00 0.00 78 1008.4
20260831035009 82 190 0.0 0.0 0.00 0.00 0.00 78 1008.4
20260831034512 82 190 0.0 0.0 0.00 0.00 0.00 77 1008.4
20260831034009 82 191 0.0 0.0 0.00 0.00 0.00 77 1008.4
20260831033509 82 191 0.0 0.0 0.00 0.00 0.00 77 1008.4
20260831033009 82 191 0.0 0.0 0.00 0.00 0.00 76 1008.3
20260831032509 82 191 0.0 0.0 0.00 0.00 0.00 75 1008.4
20260831031508 83 189 0.0 0.0 0.00 0.00 0.00 75 1008.3
20260831031009 83 188 0.0 0.0 0.00 0.00 0.00 74 1008.4
20260831030509 83 194 0.0 0.0 0.00 0.00 0.00 74 1008.5
20260831030009 83 195 0.0 0.0 0.00 0.00 0.00 74 1008.6
20260831025509 83 195 0.0 0.0 0.00 0.00 0.00 73 1008.6
20260831025009 84 199 0.0 0.0 0.00 0.00 0.00 73 1008.6
20260831024009 84 205 0.0 0.0 0.00 0.00 0.00 72 1008.6
20260831023509 84 206 0.0 0.0 0.00 0.00 0.00 71 1008.5
20260831023010 84 207 0.0 0.0 0.00 0.00 0.00 70 1008.5
20260831022509 85 208 0.0 0.0 0.00 0.00 0.00 70 1008.4
20260831022009 85 208 0.0 0.0 0.00 0.00 0.00 70 1008.4
20260831021009 85 208 0.0 0.0 0.00 0.00 0.00 69 1008.3
20260831020509 85 207 0.0 0.0 0.00 0.00 0.00 69 1008.3
20260831015509 86 208 0.0 0.0 0.00 0.00 0.00 68 1008.2
20260831015009 86 208 0.0 0.0 0.00 0.00 0.00 67 1008.1
20260831014009 87 207 0.0 0.0 0.00 0.00 0.00 66 1007.9
20260831013509 87 208 0.0 0.0 0.00 0.00 0.00 65 1007.9
20260831013010 87 208 0.0 0.0 0.00 0.00 0.00 65 1007.9
20260831012509 88 208 0.0 1.0 0.00 0.00 0.00 64 1007.9
20260831012009 88 208 0.0 1.0 0.00 0.00 0.00 64 1007.9
20260831011510 88 208 0.0 0.0 0.00 0.00 0.00 63 1007.9
20260831011010 89 207 0.0 1.0 0.00 0.00 0.00 63 1007.8
20260831010510 89 208 0.0 2.0 0.00 0.00 0.00 62 1007.8
20260831005510 90 208 1.0 2.0 0.00 0.00 0.00 62 1007.8
20260831004510 90 208 0.0 2.0 0.00 0.00 0.00 60 1007.8
20260831004010 91 208 0.0 2.0 0.00 0.00 0.00 60 1007.8
20260831003510 91 209 1.0 2.0 0.00 0.00 0.00 60 1007.8
20260831003010 91 207 0.0 1.0 0.00 0.00 0.00 59 1007.7
20260831002010 91 208 0.0 1.0 0.00 0.00 0.00 59 1007.7
20260831001510 91 209 0.0 1.0 0.00 0.00 0.00 59 1007.7
20260831001010 91 208 0.0 1.0 0.00 0.00 0.00 59 1007.7
20260831000509 91 208 0.0 1.0 0.00 0.00 0.00 59 1007.6
20260831000010 91 208 0.0 1.0 0.00 0.00 0.00 59 1007.7
20260830235510 91 207 0.0 1.0 0.00 0.00 0.00 59 1007.7
20260830235010 91 207 0.0 3.0 0.00 0.00 0.00 59 1007.7
20260830234510 91 208 1.0 3.0 0.00 0.00 0.00 58 1007.7
20260830233510 91 126 1.0 3.0 0.00 0.00 0.00 59 1007.6
20260830232510 91 172 1.0 3.0 0.00 0.00 0.00 59 1007.6
20260830232009 91 202 1.0 3.0 0.00 0.00 0.00 58 1007.5
20260830231509 91 224 1.0 3.0 0.00 0.00 0.00 59 1007.6
20260830231009 91 220 1.0 5.0 0.00 0.00 0.00 58 1007.5
20260830230509 91 203 2.0 5.0 0.00 0.00 0.00 57 1007.4
20260830230009 91 192 2.0 6.0 0.00 0.00 0.00 57 1007.3
20260830225009 91 204 1.0 3.0 0.00 0.00 0.00 58 1007.4
20260830224509 91 211 1.0 3.0 0.00 0.00 0.00 58 1007.4
20260830223509 91 199 2.0 5.0 0.00 0.00 0.00 57 1007.4
20260830223009 91 214 1.0 5.0 0.00 0.00 0.00 57 1007.4
20260830222509 91 214 3.0 5.0 0.00 0.00 0.00 57 1007.3
20260830221509 91 215 2.0 3.0 0.00 0.00 0.00 56 1007.2
20260830221009 91 205 2.0 5.0 0.00 0.00 0.00 56 1007.1
20260830220008 92 198 2.0 5.0 0.00 0.00 0.00 56 1007.2
20260830215509 92 218 1.0 5.0 0.00 0.00 0.00 57 1007.2
20260830215009 92 208 3.0 5.0 0.00 0.00 0.00 56 1007.2
20260830214009 92 222 2.0 6.0 0.00 0.00 0.00 56 1007.1
20260830213509 92 146 2.0 7.0 0.00 0.00 0.00 55 1007.1
20260830213012 92 239 2.0 7.0 0.00 0.00 0.00 55 1007.2
20260830212508 92 213 1.0 6.0 0.00 0.00 0.00 58 1007.2
20260830211510 91 198 1.0 5.0 0.00 0.00 0.00 58 1007.4
20260830211009 91 211 2.0 5.0 0.00 0.00 0.00 57 1007.6
20260830210509 91 156 1.0 3.0 0.00 0.00 0.00 58 1007.7
20260830205509 90 187 1.0 7.0 0.00 0.00 0.00 58 1007.8
20260830205009 90 219 4.0 7.0 0.00 0.00 0.00 59 1007.8
20260830204009 90 294 2.0 3.0 0.00 0.00 0.00 59 1007.9
20260830203509 89 220 1.0 6.0 0.00 0.00 0.00 59 1007.9
20260830203010 89 217 2.0 6.0 0.00 0.00 0.00 58 1007.8
20260830202509 89 209 3.0 6.0 0.00 0.00 0.00 59 1007.8
20260830202010 89 208 1.0 3.0 0.00 0.00 0.00 59 1007.7
20260830201510 89 214 1.0 3.0 0.00 0.00 0.00 60 1007.7
20260830201010 89 92 0.0 5.0 0.00 0.00 0.00 62 1007.8
20260830200510 89 194 1.0 7.0 0.00 0.00 0.00 61 1008.0
20260830200010 88 209 2.0 7.0 0.00 0.00 0.00 61 1008.2
20260830195510 88 203 1.0 3.0 0.00 0.00 0.00 61 1008.2
20260830195010 88 204 1.0 3.0 0.00 0.00 0.00 61 1008.3
20260830194510 88 212 1.0 5.0 0.00 0.00 0.00 61 1008.3